TIME,DELAY(SENSOR),PRES,T(CTD),SAL,OXYGEN,RAWTEMP,T(OPTODE),TCPHASE,FLUOR,BETA(BETA700),BETA(BETA412),BETA(BETA440),CDOM,C(CSC),ED(ED412.40),ED(ED444.00),ED(ED489.70),ED(ED554.30),LU(LU411.80),LU(LU443.40),LU(LU489.60),LU(LU554.10),COMP,TILTX,TILTX(TILTY),CHECK
1365889429,5808,497.9400024414062500,6.7825999259948730,34.0945014953613300,92.0160369873046900,592.7410278320312000,6.8185100555419920,47.4376106262207000,50,102,85,81,78,14829,2147747273,2147425819,2148006656,2147871588,2147627309,2147076251,2148243126,2147198528,717,4,13,43638
1365889578,5810,485.7699890136719000,7.2042999267578125,34.0951995849609400,101.1316986083984400,581.3515014648438000,7.1850509643554690,46.2851600646972660,51,103,87,80,77,14830,2147744164,2147422994,2148008393,2147873728,2147628937,2147078866,2148241938,2147198098,397,4,12,47465
1365889693,5806,475.2900085449219000,7.4246001243591310,34.0962982177734400,106.5379028320312500,574.2590942382812000,7.4127039909362790,45.6115798950195300,51,105,88,81,77,14826,2147745545,2147425892,2148003739,2147873078,2147625636,2147081874,2148243739,2147197504,3082,4,13,42783
1365889810,5808,464.6099853515625000,7.5742001533508300,34.0942993164062500,114.1467971801757800,569.5549926757812000,7.5634541511535645,44.7732086181640600,50,104,87,80,77,14828,2147742464,2147423780,2148005787,2147872978,2147625920,2147081453,2148240548,2147199917,2177,4,13,56183
1365889937,5806,452.9200134277344000,7.7814998626708980,34.0829010009765600,122.1031036376953100,563.7009887695312000,7.7507801055908200,43.9126281738281250,50,104,86,81,77,14831,2147741888,2147424877,2148010541,2147873526,2147625097,2147086738,2148236516,2147198107,1173,4,13,8972
1365890052,5808,442.5499877929687500,7.9106001853942870,34.0850982666015600,129.9107055664062500,559.1865844726562000,7.8950390815734860,43.1167716979980500,51,103,88,80,76,14822,2147738368,2147423670,2148004096,2147870729,2147623195,2147089581,2148241929,2147197833,3143,4,13,30397
1365890181,5807,430.8900146484375000,8.1223001480102540,34.0788002014160160,139.2400054931640600,552.5164794921875000,8.1078681945800780,42.1823616027832000,50,103,87,80,76,14826,2147739904,2147420690,2148005302,2147873746,2147620955,2147090614,2148239424,2147199067,2047,4,13,24202
1365890308,5807,419.9599914550781000,8.3819999694824220,34.0830001831054700,147.1766052246093800,544.5620117187500000,8.3611946105957030,41.3761901855468750,50,104,89,79,75,14830,2147740754,2147424685,2148006217,2147875273,2147617965,2147087414,2148233737,2147201490,969,4,13,29189
1365890437,5806,408.9899902343750000,8.5095996856689450,34.0770988464355500,157.2109069824218800,540.0894165039062000,8.5034103393554690,40.4951210021972660,50,104,86,80,74,14827,2147738633,2147426075,2148004388,2147874514,2147619190,2147089088,2148234276,2147206162,165,4,13,51938
1365890564,5809,399.1199951171875000,8.8528003692626950,34.0760002136230500,169.9181060791015600,529.7935180664062000,8.8301811218261720,39.3581199645996100,50,102,87,80,72,14832,2147737828,2147424091,2148004836,2147872429,2147617572,2147093696,2148235620,2147202276,2620,4,13,49594
1365890747,5807,385.1900024414062500,9.0763998031616210,34.0871009826660160,175.6194000244140600,522.2706298828125000,9.0684223175048830,38.8177108764648440,49,103,90,80,73,14832,2147737389,2147425289,2148003885,2147875190,2147614326,2147092480,2148229321,2147200466,526,4,13,28873
1365890863,5809,374.2900085449219000,9.4343004226684570,34.0932006835937500,183.6105957031250000,510.3215942382812500,9.4459638595581050,38.0595817565918000,50,103,87,81,71,14827,2147731986,2147425810,2148005878,2147871542,2147612105,2147097188,2148232548,2147202285,3526,3,13,37567
1365890978,5813,363.2900085449219000,9.7421998977661130,34.0998992919921900,186.7888031005859400,501.3099060058594000,9.7300128936767580,37.6932716369628900,49,103,86,79,71,14829,2147736969,2147425408,2148006619,2147874194,2147611538,2147095360,2148235556,2147201069,2253,3,13,26222
1365891095,5808,351.5100097656250000,10.0514001846313480,34.1100006103515600,193.9806060791015600,489.9309082031250000,10.0878696441650390,37.0316810607910160,50,104,89,80,72,14827,2147732534,2147424338,2148010285,2147872804,2147611209,2147104000,2148228955,2147201234,1143,3,13,11334
1365891198,5808,341.1400146484375000,10.4783000946044920,34.1181983947753900,203.2261962890625000,477.9237976074219000,10.4645395278930660,36.2557601928710940,49,103,90,79,70,14824,2147735753,2147429330,2148010779,2147870866,2147610560,2147099254,2148230262,2147202212,48,4,13,37190
1365891313,5806,329.4700012207031000,10.6787004470825200,34.1268005371093750,207.1920013427734400,470.8688049316406000,10.6854295730590820,35.9011497497558600,48,103,89,79,70,14827,2147732790,2147427510,2148017398,2147873170,2147608649,2147103414,2148226377,2147206683,2820,3,13,61995
1365891432,5811,318.9700012207031000,10.8759002685546880,34.1333007812500000,207.9087066650390600,464.8702087402344000,10.8730001449584960,35.7598304748535160,48,104,87,82,70,14828,2147728082,2147427309,2148022701,2147871954,2147606299,2147102006,2148227830,2147204342,2986,3,14,23784
1365891595,5807,308.4500122070312500,11.2833003997802730,34.1537017822265600,205.4826965332031200,451.5120849609375000,11.2899103164672850,35.6854896545410160,49,105,85,81,69,14824,2147728036,2147431506,2148026770,2147871140,2147603730,2147114633,2148226029,2147204333,2318,3,13,39583
1365891775,5810,296.9599914550781000,11.9722995758056640,34.1540985107421900,205.6567993164062500,429.8782958984375000,11.9629898071289060,35.3268089294433600,50,101,86,80,69,14823,2147728731,2147437348,2148041618,2147872914,2147601572,2147123236,2148237860,2147210752,3517,3,13,18849
1365891938,5811,285.5400085449219000,12.5242004394531250,34.1829986572265600,209.8092956542968800,412.4996032714844000,12.5019197463989260,34.8076896667480500,48,104,86,80,68,14826,2147728850,2147444516,2148057462,2147870774,2147598976,2147130258,2148240374,2147207725,3367,3,14,45188
1365892074,5808,274.5599975585937500,13.0717000961303710,34.2150993347168000,210.5413055419922000,394.3104858398437500,13.0644598007202150,34.4814796447753900,49,104,88,80,68,14825,2147724690,2147451373,2148083282,2147872356,2147598034,2147140617,2148247094,2147209627,1824,3,14,44311
1365892201,5810,262.3999938964844000,13.9444999694824220,34.2951011657714840,216.6965942382812500,364.2088012695312500,13.9924097061157230,33.6744918823242200,48,103,86,80,68,14819,2147723958,2147464923,2148116406,2147873161,2147592704,2147152082,2148261522,2147212086,1369,3,14,33205
1365892318,5809,251.3000030517578000,14.7024002075195310,34.3745002746582000,215.5325012207031200,341.1896972656250000,14.6998701095581050,33.3942413330078100,48,103,86,79,67,14821,2147723172,2147486052,2148164617,2147870427,2147589760,2147173257,2148281673,2147214235,1718,3,13,55737
1365892445,5805,240.3099975585937500,15.2377996444702150,34.4431991577148440,217.1287994384765600,322.7774047851562500,15.2646398544311520,33.0354385375976560,48,110,87,80,67,14810,2147724699,2147510893,2148214692,2147872896,2147587840,2147187684,2148295625,2147211538,878,3,14,4271
1365892584,5809,229.6799926757812500,16.1984996795654300,34.5545005798339840,216.1031036376953000,292.6791992187500000,16.1861705780029300,32.6548500061035160,49,105,89,80,66,14813,2147732425,2147546276,2148290944,2147871616,2147585563,2147213046,2148333110,2147219629,267,4,14,1083
1365892749,5805,219.4100036621093800,17.3232002258300780,34.6996002197265600,216.0634002685547000,256.4020080566406000,17.2950000762939450,32.1413612365722660,49,103,86,79,66,14808,2147734637,2147597357,2148404242,2147870555,2147585956,2147252617,2148389092,2147225965,2940,3,15,36753
1365892980,5811,206.5099945068359400,18.6263999938964840,34.8904991149902340,218.1443939208984400,213.0700988769531200,18.6183605194091800,31.4296092987060550,51,106,87,79,64,14802,2147756196,2147684306,2148574976,2147872100,2147587072,2147321563,2148465472,2147228571,2428,3,15,23187
1365893095,5811,197.0599975585937500,19.2343006134033200,34.9748001098632800,218.1165924072265600,193.9234924316406200,19.2032299041748050,31.1703395843505860,56,108,88,80,64,14792,2147782272,2147789330,2148777398,2147872329,2147594660,2147391990,2148570432,2147237330,2655,2,15,32622
1365893150,5807,192.4100036621093800,19.4202995300292970,35.0071983337402340,218.1562957763672000,186.1705017089843800,19.4401397705078120,31.0636100769042970,55,109,89,81,65,14795,2147799707,2147847890,2148894372,2147875291,2147605613,2147430857,2148625773,2147241133,2915,3,15,7781
1365893205,5810,187.8300018310547000,19.5139999389648440,35.0205993652343750,218.1204071044922000,183.3585052490234400,19.5260906219482420,31.0276203155517580,56,110,86,81,63,14787,2147817344,2147905142,2149000969,2147875574,2147608210,2147464640,2148676790,2147249984,2951,3,15,16055
1365893280,5807,181.8999938964843800,19.8910999298095700,35.0682983398437500,217.9682006835937500,171.3155059814453000,19.8942794799804700,30.8735904693603500,62,111,88,81,63,14781,2147856365,2148013467,2149200164,2147875008,2147623442,2147537462,2148769883,2147255305,2997,2,15,59489
1365893335,5806,178.0599975585937500,20.0655994415283200,35.0908012390136700,218.2691955566406200,165.8493957519531200,20.0614604949951170,30.7847995758056640,66,111,86,82,63,14778,2147888758,2148088091,2149334976,2147874276,2147636580,2147585508,2148831341,2147258294,2305,2,15,15900
1365893402,5810,173.5000000000000000,20.2346000671386720,35.1106986999511700,218.6502990722656200,159.9888000488281200,20.2407608032226560,30.6869697570800780,72,111,88,80,63,14771,2147940278,2148219977,2149557741,2147878162,2147659474,2147652900,2148934381,2147270985,1429,2,15,55116
1365893457,5808,169.8999938964843800,20.3890991210937500,35.1291007995605500,219.3854064941406200,155.3771972656250000,20.3819007873535160,30.5876598358154300,72,115,90,81,62,14764,2147995044,2148340653,2149768402,2147875273,2147684123,2147723209,2149026285,2147275008,861,3,15,8538
1365893512,5807,166.3000030517578000,20.5956001281738280,35.1449012756347660,219.5410003662109400,148.3731994628906200,20.5963306427001950,30.4866695404052730,79,119,89,82,64,14761,2148065773,2148497618,2150030537,2147880640,2147715254,2147809362,2149144036,2147283849,1015,2,15,29382
1365893591,5808,162.0099945068359400,20.8955993652343750,35.1664009094238300,219.6587982177734400,139.0621032714843800,20.8815498352050780,30.3577003479003900,88,122,89,82,62,14749,2148162404,2148689152,2150339721,2147881846,2147749467,2147900260,2149271040,2147293202,155,2,15,17652
1365893670,5810,158.6900024414062500,20.9915008544921880,35.1633987426757800,218.2664031982422000,135.7077026367187500,20.9843502044677730,30.3850498199462900,91,124,88,81,62,14745,2148279158,2148917778,2150701549,2147885988,2147794779,2148018733,2149417325,2147305024,900,2,16,40528
1365893761,5808,154.8600006103515600,21.0286006927490230,35.1534004211425800,215.9768981933593800,134.4364929199218800,21.0233192443847660,30.4872093200683600,93,125,89,82,63,14737,2148437750,2149214884,2151159113,2147886976,2147852288,2148145764,2149590336,2147316763,241,2,15,36828
1365893864,5805,150.4400024414062500,21.0363006591796880,35.1496009826660160,214.6817932128906200,134.1699066162109400,21.0314903259277340,30.5514106750488280,93,125,88,82,63,14741,2148650532,2149581714,2151687963,2147895158,2147931209,2148315108,2149815670,2147338468,2895,2,15,3305
1365893945,5807,146.5899963378906200,21.0904006958007800,35.1530990600585940,214.2375946044922000,131.9420928955078000,21.0997905731201170,30.5454597473144530,97,123,89,82,63,14733,2148896923,2150007616,2152328877,2147899876,2148019117,2148506505,2150059236,2147358537,2054,2,15,56396
1365894024,5810,142.5700073242187500,21.2189998626709000,35.1663017272949200,214.4649963378906200,127.9194030761718800,21.2231407165527340,30.4805908203125000,101,121,89,83,63,14726,2149252699,2150603483,2153222848,2147912146,2148162825,2148810624,2150431652,2147388233,1207,2,15,47742
1365894103,5807,138.5299987792968800,21.3540000915527340,35.1757011413574200,215.6320953369140600,124.0800018310546900,21.3409194946289060,30.3686408996582030,104,126,89,83,62,14725,2149667995,2151265819,2154167003,2147923949,2148324864,2149111113,2150820681,2147425901,988,2,15,22563
1365894182,5810,134.7500000000000000,21.4148998260498050,35.1809997558593750,215.8276977539062500,121.8843994140625000,21.4082908630371100,30.3296394348144530,103,130,91,83,63,14721,2150130944,2151937709,2155062354,2147934683,2148498377,2149413778,2151179776,2147454765,669,2,15,63133
1365894275,5809,130.7799987792968800,21.4930000305175780,35.1847991943359400,216.1492004394531200,119.4695968627929700,21.4824008941650400,30.2812690734863280,106,126,92,83,62,14715,2149403200,2150316653,2152237394,2147911835,2148216128,2148616768,2149998235,2147367012,3101,2,15,3901
1365894378,5810,126.8399963378906200,21.5221004486084000,35.1846008300781250,216.3995971679687500,118.3924026489257800,21.5154590606689450,30.2541999816894530,111,129,89,84,61,14710,2151960347,2154480850,2158446509,2147987620,2149138907,2150454518,2152370413,2147562038,3085,2,15,50863
1365894493,5811,123.0000000000000000,21.7248992919921880,35.1916999816894500,216.1365966796875000,112.0273971557617200,21.7109107971191400,30.1844196319580080,120,129,93,83,63,14692,2153324955,2156169170,2160438006,2148014454,2149631634,2151189824,2153199488,2147634861,3137,2,16,52338
1365894628,5808,118.8300018310546900,21.8897991180419920,35.2028999328613300,217.7489013671875000,106.5422973632812500,21.8794307708740230,30.0298690795898440,120,130,89,83,61,14671,2155498907,2158630674,2163110262,2148066459,2150395090,2152169673,2154185792,2147732114,2598,2,15,21493
1365894731,5811,115.1100006103515600,22.0671997070312500,35.2126998901367200,218.7662048339843800,100.8509979248046900,22.0543899536132800,29.9039707183837900,129,130,93,84,61,14678,2158400219,2161875136,2166640246,2148132452,2151397677,2153475364,2155505965,2147862144,96,2,15,44636
1365894846,5807,111.1699981689453100,22.3033008575439450,35.2271995544433600,220.6981048583984400,93.1693572998046900,22.2907009124755860,29.7066001892089840,140,126,88,83,63,14668,2162113499,2165820982,2170678656,2148220708,2152673472,2154968585,2156929718,2148014144,3053,2,15,56082
1365894973,5807,106.7200012207031200,22.5883998870849600,35.2360000610351560,223.8453063964843800,83.7961425781250000,22.5793399810791000,29.4291496276855470,148,124,91,83,62,14651,2168043236,2171897426,2176338724,2148350537,2154785051,2157268818,2159005056,2148240384,2138,2,16,9928
1365895076,5807,103.3300018310546900,23.0002002716064450,35.2598991394043000,225.4096984863281200,72.7294692993164000,22.9205493927001950,29.2111091613769530,132,122,91,84,61,14656,2162684635,2163873920,2165255241,2148149348,2153227620,2154409718,2155412589,2147914349,1963,2,16,23648
1365895227,5809,99.7200012207031200,23.2992992401123050,35.2891998291015600,229.7778015136718800,60.7659683227539060,23.2899608612060550,28.8490295410156250,111,119,89,84,59,14673,2180700507,2184026093,2186856201,2148632457,2160511451,2163148507,2163772306,2148749604,1874,2,16,58474
1365895282,5808,97.5699996948242200,23.5214996337890620,35.3142013549804700,231.1930999755859400,54.0017204284668000,23.4990997314453120,28.6968898773193360,98,119,90,84,59,14682,2185098633,2187959259,2190230208,2148769472,2163048850,2165729353,2165804699,2148957668,1288,1,16,29285
1365895337,5804,95.5299987792968800,23.5664997100830080,35.3175010681152340,232.6842956542968800,51.3488883972168000,23.5811805725097660,28.5935096740722660,91,117,91,83,58,14684,2189053860,2191422381,2193185024,2148887241,2165543058,2168136219,2167558445,2149130450,598,2,16,10395
1365895392,5807,93.4700012207031200,23.7098007202148440,35.3193016052246100,233.6824035644531200,47.3133888244628900,23.7061004638671880,28.4964904785156250,81,119,89,84,60,14690,2193176173,2195067318,2196122998,2149023497,2168315949,2170815286,2169549613,2149321828,3491,2,16,37125
1365895447,5808,91.6399993896484400,23.8689994812011720,35.3232994079589840,234.3540039062500000,42.2231101989746100,23.8637790679931640,28.4016799926757800,79,118,90,85,61,14690,2197703012,2199201170,2199844443,2149169307,2171534400,2173938633,2171840082,2149549769,352,1,15,34069
1365895525,5808,88.8700027465820300,24.0589008331298830,35.3182983398437500,235.1808929443359400,36.0294685363769500,24.0558109283447270,28.2863292694091800,74,120,94,83,58,14688,2203046409,2203747922,2203556160,2149463186,2176251940,2178120512,2174572690,2149822317,3148,2,16,54245
1365895580,5807,86.3300018310546900,24.2166996002197270,35.3404006958007800,236.2675018310547000,31.2927494049072270,24.2027893066406250,28.1775703430175780,68,120,92,84,57,14691,2193914450,2193033380,2191509248,2149157403,2174047222,2174416923,2170346779,2149393462,2842,1,16,53120
1365895635,5806,83.8199996948242200,24.3437004089355470,35.3558998107910160,238.0285949707031200,27.1669692993164060,24.3309097290039060,28.0467090606689450,69,119,90,83,56,14689,2216562322,2217576914,2216991076,2150220214,2190572214,2191342080,2183949970,2150724790,2419,1,16,27191
1365895690,5807,81.3700027465820300,24.3528995513916000,35.3538017272949200,239.1309967041015600,26.6284198760986330,24.3476390838623050,27.9902000427246100,68,117,91,84,56,14677,2220123675,2221016320,2220124781,2150513993,2196480722,2196307876,2187046125,2151004397,2085,2,16,21321
1365895745,5807,78.8899993896484400,24.3558998107910160,35.3541984558105500,239.7288055419922000,26.4043807983398440,24.3546009063720700,27.9606990814209000,67,118,95,84,56,14679,2224705865,2225610816,2224638976,2150932059,2203731666,2202552228,2191031232,2151390098,1646,1,16,20394
1365895800,5810,76.3600006103515600,24.3558998107910160,35.3501014709472660,240.0283966064453000,26.4075298309326170,24.3545093536376950,27.9473304748535160,67,117,90,82,57,14679,2226454573,2226772553,2225312228,2151215542,2208938066,2206642907,2193362962,2151609654,1307,1,16,2367
1365895857,5807,73.7900009155273400,24.3558998107910160,35.3418006896972660,240.2091064453125000,26.3345508575439450,24.3567695617675780,27.9383201599121100,66,116,89,84,54,14672,2236480192,2237298605,2236349741,2152165165,2219559725,2216524854,2200419638,2152316672,901,1,16,18195
1365895912,5812,71.3300018310546900,24.3617000579834000,35.3296012878418000,240.0944976806640600,26.0714702606201170,24.3649501800537100,27.9401798248291000,64,119,88,83,52,14668,2240160896,2240365001,2238945005,2152844214,2225677915,2221269238,2203196781,2152628772,61,2,15,30031
1365895967,5808,68.7699966430664000,24.3623008728027340,35.3280982971191400,240.3238983154297000,26.0685195922851560,24.3650398254394530,27.9298896789550780,63,116,92,84,56,14621,2247300608,2247325622,2245445266,2153612800,2234867017,2229496420,2208802176,2153227977,3406,2,16,32677
1365896022,5806,66.1500015258789000,24.3603000640869140,35.3251991271972660,240.4219970703125000,26.0731506347656250,24.3648891448974600,27.9256992340087900,64,118,92,84,56,14674,2258659227,2259503670,2258327168,2155095844,2246287734,2239943469,2216001417,2154016164,3524,1,16,54822
1365896077,5807,63.4900016784668000,24.3836002349853500,35.3204002380371100,240.1945953369140600,25.3856906890869140,24.3862590789794920,27.9273204803466800,64,119,91,84,56,14674,2261568109,2261446692,2259306285,2156104027,2255535853,2247350902,2220557897,2154513526,3474,2,16,36352
1365896132,5809,60.9700012207031250,24.3906993865966800,35.3186988830566400,240.3309020996093800,25.0890808105468750,24.3954696655273440,27.9176197052001950,61,117,87,84,52,14674,2271664539,2272223972,2270749942,2157975030,2265903561,2256439954,2226703131,2155408530,3142,1,16,60151
1365896189,5806,58.4099998474121100,24.4004993438720700,35.3188018798828100,240.2940063476562500,24.6953907012939450,24.4077091217041000,27.9144401550292970,62,117,91,83,58,14676,2281473828,2282657252,2281351753,2159918400,2277412580,2266080740,2232936722,2156255963,2627,1,16,39870
1365896244,5809,56.0000000000000000,24.4095001220703120,35.3194007873535160,240.3330993652343800,24.5001697540283200,24.4137706756591800,27.9101791381835940,61,119,89,85,55,14674,2288094208,2288600640,2286228498,2161373174,2291087030,2278162550,2240968420,2157292964,2174,1,16,60931
1365896299,5808,53.6399993896484400,24.4298000335693360,35.3184013366699200,240.2675933837890600,23.8093795776367200,24.4352397918701170,27.9045505523681640,61,119,92,84,57,14670,2299830573,2301028224,2299334610,2164523163,2305103826,2290858468,2249503707,2158641956,1824,1,16,36912
1365896354,5805,51.3100013732910160,24.4738006591796880,35.3176994323730500,240.0735931396484400,22.5048007965087900,24.4757995605468750,27.8970909118652340,59,117,91,83,55,14675,2308469421,2309857243,2308258733,2166811090,2315786550,2299692342,2255011949,2159424813,1946,1,16,62774
1365896409,5807,49.1399993896484400,24.5482997894287100,35.3167991638183600,239.8388061523437500,20.0023403167724600,24.5536098480224600,27.8766708374023440,57,117,89,83,56,14668,2311739108,2312188498,2309968036,2168702811,2325409014,2307026313,2259234029,2160151241,1965,2,16,28574
1365896464,5808,47.1199989318847660,24.6053009033203120,35.3116989135742200,239.5482025146484400,18.4237594604492200,24.6027107238769530,27.8701992034912100,58,117,89,85,56,14668,2318050368,2318085339,2315661632,2171725293,2338358390,2318494052,2267183798,2161415515,2122,1,16,62387
1365896521,5808,45.1800003051757800,24.6550998687744140,35.3101997375488300,239.3159942626953000,16.7031707763671880,24.6562500000000000,27.8591804504394530,58,116,91,83,54,14666,2333950592,2335735149,2334529069,2175633627,2353702052,2332523017,2277139392,2163034057,1938,1,15,48404
1365896588,5807,43.1100006103515600,24.6688003540039060,35.3100013732910160,239.2655944824218800,16.0145397186279300,24.6776790618896500,27.8530902862548830,56,117,92,83,57,14663,2342934811,2344924836,2343901522,2180104740,2368092150,2344704137,2285033718,2164654802,1985,1,16,10193
1365896655,5809,41.0600013732910160,24.6728000640869140,35.3101005554199200,239.1786041259765600,15.5997104644775390,24.6905994415283200,27.8518009185791000,55,117,93,85,60,14669,2356461394,2359430994,2359551259,2186294162,2383262601,2357731712,2293557156,2166642176,2179,1,16,4072
1365896722,5807,38.8600006103515600,24.6800003051757800,35.3093986511230500,239.1822052001953000,15.4755001068115230,24.6944599151611330,27.8500995635986330,55,116,92,83,54,14666,2360293696,2362013814,2361727424,2189778614,2392774208,2364700288,2297973421,2167714587,2532,1,16,52929
1365896777,5806,36.9300003051757800,24.6889991760253900,35.3089981079101560,239.1988067626953000,15.2115297317504880,24.7026805877685550,27.8461494445800780,55,115,91,84,56,14671,2380769142,2384198966,2385995693,2198835419,2406860617,2376803867,2306006217,2169773805,2752,1,16,44312
1365896855,5807,33.5600013732910160,24.7289009094238280,35.3050994873046900,239.0700988769531200,14.0576200485229500,24.7385997772216800,27.8376293182373050,53,117,92,83,59,14671,2388187300,2389652251,2391262546,2209076461,2435579904,2401389586,2322145408,2173235611,3046,1,16,33425
1365896910,5806,30.8700008392334000,24.7583999633789060,35.3012008666992200,239.0637969970703000,12.9820899963378900,24.7720909118652340,27.8245906829834000,53,116,89,85,58,14672,2408328630,2410334857,2413088128,2220762340,2462724068,2424412169,2337279680,2176556123,3033,1,16,10780
1365896965,5807,28.2299995422363280,24.7952995300292970,35.2947998046875000,238.9429931640625000,11.7639503479003900,24.8100299835205080,27.8151206970214840,54,119,89,83,53,14670,2418807451,2421639744,2425436617,2235226230,2484876379,2442586157,2348691510,2181433664,2714,0,16,10678
1365897020,5818,25.6100006103515620,24.7900009155273440,35.2790985107421900,238.6815032958984400,11.7776203155517580,24.8096008300781250,27.8270092010498050,53,118,90,82,59,14670,2426543085,2428588388,2431573275,2244098404,2512723355,2465867620,2365045476,2184199232,2749,2,16,36943
